TimeCST,TemperatureF,Dew PointF,Humidity,Sea Level PressureIn,VisibilityMPH,Wind Direction,Wind SpeedMPH,Gust SpeedMPH,PrecipitationIn,Events,Conditions,WindDirDegrees,DateUTC
12:15 AM,46.4,42.8,87,29.91,10.0,NNW,5.8,-,N/A,,Mostly Cloudy,340,2012-12-07 06:15:00
12:35 AM,46.4,42.8,87,29.91,10.0,NNW,4.6,-,N/A,,Overcast,330,2012-12-07 06:35:00
12:55 AM,46.4,42.8,87,29.91,10.0,North,6.9,-,N/A,,Overcast,360,2012-12-07 06:55:00
1:15 AM,46.4,42.8,87,29.90,7.0,North,5.8,-,N/A,,Overcast,10,2012-12-07 07:15:00
1:35 AM,46.4,42.8,87,29.90,10.0,North,4.6,-,N/A,,Overcast,10,2012-12-07 07:35:00
1:55 AM,44.6,42.8,93,29.91,5.0,North,5.8,-,N/A,,Drizzle,360,2012-12-07 07:55:00
2:15 AM,44.6,42.8,93,29.91,7.0,North,5.8,-,N/A,,Overcast,350,2012-12-07 08:15:00
2:35 AM,44.6,42.8,93,29.91,5.0,North,6.9,-,N/A,,Overcast,10,2012-12-07 08:35:00
2:55 AM,44.6,42.8,93,29.91,7.0,North,8.1,-,N/A,,Overcast,10,2012-12-07 08:55:00
3:15 AM,44.6,42.8,93,29.92,5.0,North,5.8,-,N/A,,Drizzle,10,2012-12-07 09:15:00
3:35 AM,42.8,42.8,100,29.92,4.0,North,5.8,-,N/A,,Drizzle,360,2012-12-07 09:35:00
3:55 AM,42.8,42.8,100,29.92,4.0,North,4.6,-,N/A,,Drizzle,10,2012-12-07 09:55:00
4:15 AM,42.8,42.8,100,29.91,3.0,North,4.6,-,N/A,,Light Drizzle,10,2012-12-07 10:15:00
4:35 AM,42.8,42.8,100,29.91,4.0,North,5.8,-,N/A,,Light Drizzle,10,2012-12-07 10:35:00
4:55 AM,42.8,42.8,100,29.91,4.0,North,3.5,-,N/A,,Overcast,10,2012-12-07 10:55:00
5:15 AM,42.8,42.8,100,29.90,4.0,North,3.5,-,N/A,,Overcast,10,2012-12-07 11:15:00
5:35 AM,42.8,42.8,100,29.90,5.0,NNE,5.8,-,N/A,,Overcast,20,2012-12-07 11:35:00
5:55 AM,42.8,41.0,93,29.90,4.0,Calm,Calm,-,N/A,,Overcast,0,2012-12-07 11:55:00
6:15 AM,42.8,41.0,93,29.90,7.0,NNE,3.5,-,N/A,,Overcast,20,2012-12-07 12:15:00
6:35 AM,42.8,41.0,93,29.90,7.0,NNE,5.8,-,N/A,,Overcast,30,2012-12-07 12:35:00
6:55 AM,42.8,41.0,93,29.90,10.0,ENE,4.6,-,N/A,,Overcast,60,2012-12-07 12:55:00
7:15 AM,42.8,41.0,93,29.90,10.0,Calm,Calm,-,N/A,,Overcast,0,2012-12-07 13:15:00
7:35 AM,42.8,41.0,93,29.90,7.0,NNW,3.5,-,N/A,,Overcast,340,2012-12-07 13:35:00
7:55 AM,42.8,41.0,93,29.90,7.0,North,3.5,-,N/A,,Overcast,10,2012-12-07 13:55:00
8:15 AM,42.8,41.0,93,29.91,7.0,NNE,4.6,-,N/A,,Overcast,20,2012-12-07 14:15:00
8:35 AM,42.8,41.0,93,29.91,7.0,North,4.6,-,N/A,,Overcast,360,2012-12-07 14:35:00
8:55 AM,42.8,41.0,93,29.91,7.0,NNE,4.6,-,N/A,,Overcast,20,2012-12-07 14:55:00
9:15 AM,42.8,41.0,93,29.92,7.0,North,3.5,-,N/A,,Overcast,360,2012-12-07 15:15:00
9:35 AM,42.8,41.0,93,29.92,10.0,NNE,4.6,-,N/A,,Overcast,30,2012-12-07 15:35:00
9:55 AM,44.6,41.0,87,29.92,10.0,NNE,4.6,-,N/A,,Overcast,30,2012-12-07 15:55:00
10:15 AM,44.6,41.0,87,29.92,10.0,NNE,4.6,-,N/A,,Overcast,20,2012-12-07 16:15:00
10:35 AM,44.6,41.0,87,29.91,10.0,NNE,4.6,-,N/A,,Overcast,30,2012-12-07 16:35:00
10:55 AM,44.6,41.0,87,29.91,10.0,NNE,5.8,-,N/A,,Overcast,30,2012-12-07 16:55:00
11:15 AM,44.6,41.0,87,29.91,10.0,NNE,3.5,-,N/A,,Overcast,20,2012-12-07 17:15:00
11:35 AM,44.6,41.0,87,29.90,10.0,NNW,4.6,-,N/A,,Overcast,340,2012-12-07 17:35:00
11:55 AM,44.6,41.0,87,29.89,10.0,North,4.6,-,N/A,,Overcast,10,2012-12-07 17:55:00
12:15 PM,44.6,41.0,87,29.88,10.0,NNE,3.5,-,N/A,,Overcast,30,2012-12-07 18:15:00
12:35 PM,44.6,42.8,93,29.87,10.0,NE,4.6,-,N/A,,Overcast,40,2012-12-07 18:35:00
12:55 PM,44.6,42.8,93,29.85,10.0,NNE,4.6,-,N/A,,Overcast,20,2012-12-07 18:55:00
1:15 PM,44.6,41.0,87,29.85,10.0,East,3.5,-,N/A,,Overcast,80,2012-12-07 19:15:00
1:35 PM,46.4,42.8,87,29.87,10.0,Calm,Calm,-,N/A,,Overcast,0,2012-12-07 19:35:00
1:55 PM,46.4,42.8,87,29.85,10.0,Calm,Calm,-,N/A,,Overcast,0,2012-12-07 19:55:00
2:15 PM,46.4,42.8,87,29.85,10.0,Calm,Calm,-,N/A,,Overcast,0,2012-12-07 20:15:00
2:35 PM,46.4,42.8,87,29.86,10.0,Calm,Calm,-,N/A,,Overcast,0,2012-12-07 20:35:00
2:55 PM,46.4,42.8,87,29.86,10.0,NW,5.8,-,N/A,,Overcast,320,2012-12-07 20:55:00
3:15 PM,46.4,42.8,87,29.86,10.0,NNW,4.6,-,N/A,,Overcast,340,2012-12-07 21:15:00
3:35 PM,46.4,42.8,87,29.87,10.0,NNW,5.8,-,N/A,,Overcast,340,2012-12-07 21:35:00
3:55 PM,46.4,42.8,87,29.88,10.0,NNW,3.5,-,N/A,,Overcast,330,2012-12-07 21:55:00
4:15 PM,46.4,42.8,87,29.87,10.0,North,4.6,-,N/A,,Overcast,360,2012-12-07 22:15:00
4:35 PM,44.6,42.8,93,29.87,10.0,North,4.6,-,N/A,,Unknown,10,2012-12-07 22:35:00
4:55 PM,44.6,42.8,93,29.88,10.0,North,6.9,-,N/A,,Overcast,350,2012-12-07 22:55:00
5:15 PM,44.6,42.8,93,29.88,10.0,North,8.1,-,N/A,,Overcast,360,2012-12-07 23:15:00
5:35 PM,44.6,41.0,87,29.89,10.0,North,6.9,-,N/A,,Overcast,360,2012-12-07 23:35:00
5:55 PM,44.6,41.0,87,29.89,10.0,North,4.6,-,N/A,,Light Drizzle,360,2012-12-07 23:55:00
6:15 PM,44.6,41.0,87,29.90,10.0,North,3.5,-,N/A,Rain,Light Rain,10,2012-12-08 00:15:00
6:35 PM,44.6,41.0,87,29.90,10.0,NNE,3.5,-,N/A,,Overcast,20,2012-12-08 00:35:00
7:15 PM,44.6,41.0,87,29.90,10.0,Calm,Calm,-,N/A,,Overcast,0,2012-12-08 01:15:00
7:35 PM,44.6,41.0,87,29.90,10.0,NNE,3.5,-,N/A,,Overcast,30,2012-12-08 01:35:00
7:55 PM,44.6,41.0,87,29.90,10.0,Calm,Calm,-,N/A,Rain,Light Rain,0,2012-12-08 01:55:00
8:15 PM,42.8,41.0,93,29.90,10.0,Calm,Calm,-,N/A,,Mostly Cloudy,0,2012-12-08 02:15:00
8:35 PM,42.8,41.0,93,29.91,10.0,Calm,Calm,-,N/A,Rain,Light Rain,0,2012-12-08 02:35:00
8:55 PM,42.8,41.0,93,29.91,10.0,Calm,Calm,-,N/A,,Mostly Cloudy,0,2012-12-08 02:55:00
9:15 PM,42.8,41.0,93,29.90,7.0,Calm,Calm,-,N/A,,Mostly Cloudy,0,2012-12-08 03:15:00
9:55 PM,41.0,41.0,100,29.91,7.0,Calm,Calm,-,N/A,,Light Drizzle,0,2012-12-08 03:55:00
10:35 PM,41.0,41.0,100,29.92,7.0,NNW,3.5,-,N/A,,Mostly Cloudy,340,2012-12-08 04:35:00
10:55 PM,41.0,39.2,93,29.93,7.0,NNW,4.6,-,N/A,,Mostly Cloudy,340,2012-12-08 04:55:00
11:15 PM,41.0,39.2,93,29.95,7.0,NNW,5.8,-,N/A,,Overcast,330,2012-12-08 05:15:00
11:35 PM,41.0,39.2,93,29.95,7.0,NNW,5.8,-,N/A,,Overcast,340,2012-12-08 05:35:00
11:55 PM,41.0,39.2,93,29.95,7.0,NNW,3.5,-,N/A,,Overcast,340,2012-12-08 05:55:00